Weather History for Nome, AK

Change the Weather History Date:

Tuesday, August 27, 2013

  Actual Average Record
Temperature  
Mean Temperature 46 °F 49 °F  
Max Temperature 52 °F 55 °F 70 °F (1995)
Min Temperature 40 °F 43 °F 27 °F (1984)
Degree Days  
Heating Degree Days 19 16  
Month to date heating degree days 286 398  
Since 1 June heating degree days 1169 1314  
Since 1 July heating degree days 693 798  
Cooling Degree Days 0    
Month to date cooling degree days 0  
Year to date cooling degree days 7  
Since 1 June cooling degree days 7  
Moisture  
Dew Point 45 °F    
Average Humidity 0    
Maximum Humidity 0    
Minimum Humidity 0    
Precipitation  
Precipitation 0.04 in 0.10 in 0.74 in (1929)
Month to date precipitation 4.05 2.85  
Year to date precipitation 12.95 10.08  
Snow  
Snow 0.00 in 0.00 in T in (1913)
Month to date snowfall 0.0 0.0  
Since 1 June snowfall 0.1 0.3  
Since 1 July snowfall 0.0 0.0  
Snow Depth 0.00 in    
Sea Level Pressure  
Sea Level Pressure 29.66 in    
Wind  
Wind Speed 10 mph (SW)    
Max Wind Speed 17 mph    
Max Gust Speed 21 mph    
Visibility 9 miles    
Events Rain    
T = Trace of Precipitation, MM = Missing Value Source: NWS Daily Summary

Daily Weather History Graph

Daily Weather History Graph

Search for Another Location

Airport:

Trip Planner

Search our weather history database for the weather conditions in past years. The results will help you decide how hot, cold, wet, or windy it might be!

Date:

Astronomy

Aug. 27, 2013 Rise Set
Actual Time 7:29 AM AKDT 10:34 PM AKDT
Civil Twilight 6:32 AM AKDT 11:30 PM AKDT
Nautical Twilight 5:07 AM AKDT 12:53 AM AKDT
Astronomical Twilight 3:35 AM AKDT 2:30 AM AKDT
Moon 11:43 PM AKDT (8/27) 5:31 PM AKDT (8/27)
Length of Visible Light 16h 58m
Length of Day
15h 05m
Waning Gibbous, 55% of the Moon is Illuminated
Aug 27
Waning Gibbous
Aug 28
Last Quarter
Sep 5
New
Sep 12
First Quarter
Sep 19
Full

Hourly Weather History & Observations

Time (AKDT) Temp. Windchill Dew Point Humidity Pressure Visibility Wind Dir Wind Speed Gust Speed Precip Events Conditions
12:05 AM 48.2 °F - 46.4 °F 93% 29.69 in 6.0 mi SSW 10.4 mph - N/A   Overcast
12:53 AM 48.9 °F - 45.0 °F 86% 29.69 in 10.0 mi SW 12.7 mph - N/A   Overcast
1:37 AM 48.2 °F - 44.6 °F 87% 29.69 in 5.0 mi SW 15.0 mph - 0.01 in Rain Light Rain
1:53 AM 48.0 °F - 45.0 °F 89% 29.70 in 9.0 mi SW 12.7 mph - 0.01 in   Overcast
2:53 AM 48.0 °F - 45.0 °F 89% 29.70 in 10.0 mi SSW 17.3 mph - 0.00 in   Overcast
3:53 AM 46.9 °F - 45.0 °F 93% 29.70 in 5.0 mi WSW 17.3 mph - 0.00 in Rain Light Rain
4:53 AM 48.0 °F - 43.0 °F 83% 29.70 in 10.0 mi SW 12.7 mph - 0.00 in   Overcast
5:44 AM 48.2 °F - 44.6 °F 87% 29.69 in 9.0 mi SSW 13.8 mph - 0.00 in   Overcast
5:53 AM 48.9 °F - 45.0 °F 86% 29.69 in 10.0 mi SSW 10.4 mph - 0.00 in   Overcast
6:53 AM 48.9 °F - 45.0 °F 86% 29.68 in 10.0 mi SSW 13.8 mph - N/A   Overcast
7:11 AM 48.2 °F - 46.4 °F 93% 29.68 in 7.0 mi South 10.4 mph - 0.01 in Rain Light Rain
7:53 AM 50.0 °F - 46.0 °F 86% 29.67 in 10.0 mi SW 13.8 mph - 0.03 in   Overcast
8:53 AM 50.0 °F - 46.0 °F 86% 29.67 in 10.0 mi SW 13.8 mph - 0.00 in Rain Light Rain
9:53 AM 50.0 °F - 46.0 °F 86% 29.66 in 10.0 mi SSW 11.5 mph - N/A   Overcast
10:53 AM 50.0 °F - 46.0 °F 86% 29.65 in 10.0 mi WSW 9.2 mph - N/A   Overcast
11:53 AM 50.0 °F - 46.0 °F 86% 29.65 in 10.0 mi SW 11.5 mph - 0.00 in   Overcast
12:42 PM 50.0 °F - 46.4 °F 87% 29.64 in 10.0 mi WSW 11.5 mph - 0.00 in   Overcast
12:53 PM 51.1 °F - 46.9 °F 86% 29.65 in 10.0 mi SW 10.4 mph - 0.00 in   Overcast
1:10 PM 51.8 °F - 46.4 °F 82% 29.64 in 10.0 mi WSW 10.4 mph - N/A   Overcast
1:53 PM 51.1 °F - 46.0 °F 83% 29.65 in 10.0 mi WSW 8.1 mph - N/A   Overcast
2:53 PM 51.1 °F - 45.0 °F 80% 29.65 in 10.0 mi WSW 9.2 mph - N/A   Overcast
3:18 PM 51.8 °F - 44.6 °F 76% 29.63 in 10.0 mi WSW 12.7 mph - N/A   Overcast
3:25 PM 51.8 °F - 44.6 °F 76% 29.63 in 10.0 mi WSW 11.5 mph - N/A   Overcast
3:53 PM 51.1 °F - 44.1 °F 77% 29.62 in 10.0 mi WSW 10.4 mph - N/A   Overcast
4:53 PM 51.1 °F - 45.0 °F 80% 29.62 in 10.0 mi SW 10.4 mph - N/A   Overcast
5:53 PM 51.1 °F - 45.0 °F 80% 29.63 in 10.0 mi SW 8.1 mph - N/A   Overcast
6:53 PM 51.1 °F - 45.0 °F 80% 29.63 in 10.0 mi SW 9.2 mph - N/A   Overcast
7:53 PM 51.1 °F - 45.0 °F 80% 29.63 in 10.0 mi WSW 6.9 mph - N/A   Overcast
8:13 PM 51.8 °F - 44.6 °F 76% 29.63 in 10.0 mi West 10.4 mph - N/A   Overcast
8:36 PM 50.0 °F - 44.6 °F 82% 29.63 in 10.0 mi West 4.6 mph - N/A   Overcast
8:53 PM 50.0 °F - 43.0 °F 77% 29.63 in 10.0 mi WSW 5.8 mph - N/A   Overcast
9:53 PM 48.9 °F - 42.1 °F 77% 29.63 in 10.0 mi West 5.8 mph - N/A   Mostly Cloudy
10:53 PM 44.1 °F 40.8 °F 41.0 °F 89% 29.62 in 10.0 mi NW 5.8 mph - N/A   Partly Cloudy
11:53 PM 42.1 °F 38.4 °F 39.0 °F 89% 29.62 in 10.0 mi WNW 5.8 mph - N/A   Mostly Cloudy